Anaktuvuk Pass, AK

2:17 PM AKST on February 10, 2016 (GMT -0900)
Anaktuvuk Pass

Weather History for PAKP - March, 2013

Change the Weather History Date:

Friday, March 15, 2013

  Actual Average Record
Temperature  
Mean Temperature -5 °F -  
Max Temperature 6 °F 0 °F 23 °F (2014)
Min Temperature -16 °F -10 °F -38 °F (2012)
Degree Days  
Heating Degree Days 70    
Moisture  
Dew Point -22 °F    
Average Humidity 50    
Maximum Humidity 71    
Minimum Humidity 37    
Precipitation  
Precipitation 0.00 in - - ()
Sea Level Pressure  
Sea Level Pressure 30.05 in    
Wind  
Wind Speed 2 mph (SSW)    
Max Wind Speed 7 mph    
Max Gust Speed -    
Visibility 10 miles    
Events      
Averages and records for this station are not official NWS values.
T = Trace of Precipitation, MM = Missing Value Source: NWS Daily Summary

Daily Weather History Graph

Daily Weather History Graph

Search for Another Location

Airport or City:

Trip Planner

Search our weather history database for the weather conditions in past years. The results will help you decide how hot, cold, wet, or windy it might be!

Date:

Astronomy

Mar. 15, 2013 Rise Set
Actual Time 8:25 AM AKDT 8:07 PM AKDT
Civil Twilight 7:30 AM AKDT 9:03 PM AKDT
Nautical Twilight 6:22 AM AKDT 10:11 PM AKDT
Astronomical Twilight 5:02 AM AKDT 11:32 PM AKDT
Moon 8:09 AM AKDT (3/15) 1:38 AM AKDT (3/15)
Length of Visible Light 13h 33m
Length of Day
11h 42m
Waxing Crescent, 16% of the Moon is Illuminated
Mar 15
Waxing Crescent
Mar 19
First Quarter
Mar 27
Full
Apr 2
Last Quarter
Apr 10
New

Hourly Weather History & Observations

Time (AKDT) Temp. Windchill Dew Point Humidity Pressure Visibility Wind Dir Wind Speed Gust Speed Precip Events Conditions
12:16 AM -14.8 °F - -25.6 °F 58% 30.19 in 10.0 mi Calm Calm - N/A   Clear
12:36 AM -16.6 °F - -27.4 °F 58% 30.19 in 10.0 mi Calm Calm - N/A   Clear
12:56 AM -14.8 °F - -27.4 °F 53% 30.20 in 10.0 mi Calm Calm - N/A   Clear
1:16 AM -14.8 °F - -27.4 °F 53% 30.20 in 10.0 mi Calm Calm - N/A   Clear
1:36 AM -16.6 °F -26.8 °F -29.2 °F 53% 30.20 in 10.0 mi SW 3.5 mph - N/A   Clear
1:56 AM -16.6 °F - -29.2 °F 53% 30.19 in 10.0 mi Calm Calm - N/A   Clear
2:16 AM -14.8 °F -24.8 °F -23.8 °F 64% 30.18 in 10.0 mi South 3.5 mph - N/A   Clear
2:36 AM -14.8 °F -27.2 °F -25.6 °F 58% 30.17 in 10.0 mi West 4.6 mph - N/A   Clear
2:56 AM -14.8 °F -27.2 °F -25.6 °F 58% 30.17 in 10.0 mi South 4.6 mph - N/A   Clear
3:16 AM -13.0 °F -25.1 °F -27.4 °F 49% 30.16 in 10.0 mi SW 4.6 mph - N/A   Clear
3:36 AM -14.8 °F -24.8 °F -29.2 °F 48% 30.16 in 10.0 mi SSW 3.5 mph - N/A   Clear
3:56 AM -14.8 °F -27.2 °F -29.2 °F 48% 30.15 in 10.0 mi SSW 4.6 mph - N/A   Clear
4:16 AM -13.0 °F -22.7 °F -27.4 °F 49% 30.15 in 10.0 mi SW 3.5 mph - N/A   Clear
4:36 AM -13.0 °F -22.7 °F -25.6 °F 53% 30.14 in 10.0 mi SW 3.5 mph - N/A   Clear
4:56 AM -11.2 °F - -25.6 °F 49% 30.14 in 10.0 mi Calm Calm - N/A   Clear
5:16 AM -14.8 °F -24.8 °F -29.2 °F 48% 30.13 in 10.0 mi SSW 3.5 mph - N/A   Clear
5:36 AM -14.8 °F -24.8 °F -29.2 °F 48% 30.13 in 10.0 mi SW 3.5 mph - N/A   Clear
5:56 AM -14.8 °F -27.2 °F -27.4 °F 53% 30.13 in 10.0 mi South 4.6 mph - N/A   Clear
6:16 AM -14.8 °F -29.1 °F -27.4 °F 53% 30.12 in 10.0 mi SW 5.8 mph - N/A   Clear
6:36 AM -14.8 °F -29.1 °F -27.4 °F 53% 30.12 in 10.0 mi SSW 5.8 mph - N/A   Clear
6:56 AM -13.0 °F - -27.4 °F 49% 30.12 in 10.0 mi Calm Calm - N/A   Clear
7:16 AM -14.8 °F -24.8 °F -29.2 °F 48% 30.11 in 10.0 mi West 3.5 mph - N/A   Clear
7:36 AM -14.8 °F - -27.4 °F 53% 30.11 in 10.0 mi Calm Calm - N/A   Clear
7:56 AM -14.8 °F -27.2 °F -25.6 °F 58% 30.10 in 10.0 mi SSW 4.6 mph - N/A   Clear
8:16 AM -14.8 °F - -27.4 °F 53% 30.10 in 10.0 mi Calm Calm - N/A   Clear
8:36 AM -14.8 °F -27.2 °F -27.4 °F 53% 30.09 in 10.0 mi SSW 4.6 mph - N/A   Clear
8:56 AM -14.8 °F - -29.2 °F 48% 30.09 in 10.0 mi Calm Calm - N/A   Clear
9:16 AM -13.0 °F - -25.6 °F 53% 30.08 in 10.0 mi Calm Calm - N/A   Clear
9:36 AM -13.0 °F - -27.4 °F 49% 30.08 in 10.0 mi Calm Calm - N/A   Clear
9:56 AM -13.0 °F - -25.6 °F 53% 30.07 in 10.0 mi Calm Calm - N/A   Clear
10:16 AM -11.2 °F - -25.6 °F 49% 30.07 in 10.0 mi Calm Calm - N/A   Clear
10:36 AM -11.2 °F - -25.6 °F 49% 30.06 in 10.0 mi Calm Calm - N/A   Clear
10:56 AM -9.4 °F - -23.8 °F 49% 30.06 in 10.0 mi Calm Calm - N/A   Clear
11:16 AM -7.6 °F - -20.2 °F 54% 30.05 in 10.0 mi Calm Calm - N/A   Clear
11:36 AM -7.6 °F - -22.0 °F 50% 30.05 in 10.0 mi Calm Calm - N/A   Clear
11:56 AM -5.8 °F -16.7 °F -20.2 °F 50% 30.04 in 10.0 mi South 4.6 mph - N/A   Clear
12:16 PM -5.8 °F -16.7 °F -20.2 °F 50% 30.04 in 10.0 mi South 4.6 mph - N/A   Clear
12:36 PM -4.0 °F - -20.2 °F 46% 30.03 in 10.0 mi Calm Calm - N/A   Clear
12:56 PM -2.2 °F - -20.2 °F 42% 30.02 in 10.0 mi Calm Calm - N/A   Clear
1:16 PM -2.2 °F - -18.4 °F 46% 30.02 in 10.0 mi Calm Calm - N/A   Clear
1:36 PM -0.4 °F -12.0 °F -18.4 °F 43% 30.02 in 10.0 mi South 5.8 mph - N/A   Clear
1:56 PM -0.4 °F -10.4 °F -18.4 °F 43% 30.01 in 10.0 mi SSW 4.6 mph - N/A   Clear
2:16 PM -0.4 °F -12.0 °F -16.6 °F 46% 30.01 in 10.0 mi South 5.8 mph - N/A   Clear
2:36 PM 1.4 °F -6.2 °F -16.6 °F 43% 30.00 in 10.0 mi SSW 3.5 mph - N/A   Clear
2:56 PM 1.4 °F -9.9 °F -14.8 °F 47% 29.99 in 10.0 mi SSW 5.8 mph - N/A   Clear
3:16 PM 3.2 °F -4.2 °F -14.8 °F 43% 29.99 in 10.0 mi South 3.5 mph - N/A   Clear
3:36 PM 5.0 °F -5.6 °F -14.8 °F 40% 29.98 in 10.0 mi South 5.8 mph - N/A   Clear
3:56 PM 6.8 °F -0.1 °F -14.8 °F 37% 29.98 in 10.0 mi SW 3.5 mph - N/A   Clear
4:16 PM 5.0 °F -2.1 °F -14.8 °F 40% 29.97 in 10.0 mi SSW 3.5 mph - N/A   Clear
4:36 PM 3.2 °F - -14.8 °F 43% 29.96 in 10.0 mi Calm Calm - N/A   Clear
4:56 PM 3.2 °F - -14.8 °F 43% 29.96 in 10.0 mi Calm Calm - N/A   Clear
5:16 PM 3.2 °F - -14.8 °F 43% 29.96 in 10.0 mi Calm Calm - N/A   Clear
5:36 PM 5.0 °F - -9.4 °F 52% 29.96 in 10.0 mi Calm Calm - N/A   Clear
5:56 PM 1.4 °F -9.9 °F -18.4 °F 39% 29.96 in 10.0 mi NNE 5.8 mph - N/A   Clear
6:16 PM -0.4 °F - -16.6 °F 46% 29.94 in 10.0 mi Calm Calm - N/A   Clear
6:36 PM -0.4 °F - -16.6 °F 46% 29.94 in 10.0 mi Calm Calm - N/A   Clear
6:56 PM -0.4 °F -10.4 °F -18.4 °F 43% 29.93 in 10.0 mi North 4.6 mph - N/A   Clear
7:16 PM -2.2 °F - -20.2 °F 42% 29.93 in 10.0 mi Calm Calm - N/A   Clear
7:36 PM -5.8 °F -14.5 °F -20.2 °F 50% 29.93 in 10.0 mi NE 3.5 mph - N/A   Clear
7:56 PM -7.6 °F -18.8 °F -20.2 °F 54% 29.92 in 10.0 mi North 4.6 mph - N/A   Clear
8:16 PM -5.8 °F -19.9 °F -18.4 °F 55% 29.92 in 10.0 mi NNE 6.9 mph - N/A   Clear
8:36 PM -5.8 °F - -20.2 °F 50% 29.92 in 10.0 mi Calm Calm - N/A   Clear
9:56 PM -7.6 °F - -22.0 °F 50% 29.91 in 10.0 mi Calm Calm - N/A   Clear
10:16 PM -7.6 °F -16.5 °F -18.4 °F 59% 29.91 in 10.0 mi South 3.5 mph - N/A   Clear
10:36 PM -7.6 °F - -20.2 °F 54% 29.92 in 10.0 mi Calm Calm - N/A   Clear
10:56 PM -7.6 °F - -23.8 °F 45% 29.92 in 10.0 mi Calm Calm - N/A   Clear
11:16 PM -7.6 °F -18.8 °F -14.8 °F 71% 29.92 in 10.0 mi SSE 4.6 mph - N/A   Clear
11:36 PM -7.6 °F -16.5 °F -18.4 °F 59% 29.92 in 10.0 mi SSW 3.5 mph - N/A   Clear
11:56 PM -9.4 °F - -22.0 °F 54% 29.92 in 10.0 mi Calm Calm - N/A   Clear